Dewpoint
63 59 54 53 58 57 42 42 29 37 32 27 19 24 16 19 19 16 18 23 22 25 27 35 34 32 31 34 41 51 55 41 45 39 44 57 64 66 66 67 68 69 69 69 70 70 70 70 71 71 71 71 71 71 71 71 70 70 70 69 68 68 68 69 67 66 66 66 65 65 65 64 64 64 63 63 63 64 68 69 70 69 69 68 68 68 67 66 65 65 66 65 65 66 67 66 66
60 51 46 47 47 41 38 41 34 27 25 20 18 21 20 22 28 25 24 25 28 25 30 33 34 33 37 48 51 52 56 57 58 57 61 64 65 65 66 68 69 68 68 69 70 70 70 70 71 70 71 71 71 71 70 70 70 70 69 69 69 69 68 68 68 68 67 66 66 65 65 64 64 63 63 63 62 67 70 70 69 69 68 67 66 66 65 65 66 65 65 64 66 66 66 66 67
60 52 45 46 42 41 40 35 30 27 22 18 16 18 23 27 27 27 24 24 26 29 30 30 34 34 32 32 40 45 50 59 60 61 61 63 63 65 66 68 69 68 68 69 69 69 70 70 70 71 71 71 71 70 70 70 70 70 69 69 69 69 68 68 67 67 67 67 65 65 65 64 64 63 63 63 64 69 69 69 68 68 68 67 67 66 66 66 66 66 65 64 66 66 66 66 66
58 55 48 49 40 42 35 31 31 23 20 19 14 16 29 29 28 27 28 27 28 30 29 26 35 37 34 40 47 53 54 57 60 61 61 62 63 65 66 67 68 68 68 69 69 69 69 70 70 71 71 71 70 70 70 70 69 69 69 69 69 68 69 69 68 68 67 66 66 65 65 64 64 63 63 63 63 67 68 67 67 66 66 65 65 64 66 67 64 64 65 65 66 66 66 66 66
50 56 53 44 42 41 35 33 23 27 16 19 14 27 29 29 28 27 27 28 29 30 29 28 34 32 36 38 41 47 53 58 59 60 61 62 64 65 66 67 67 67 68 69 69 69 69 69 70 71 70 70 70 70 70 70 69 69 69 69 68 68 68 69 68 67 66 66 66 66 65 64 64 64 63 63 65 65 65 65 66 65 66 67 66 67 67 67 65 65 64 65 66 66 66 66 66
54 52 55 43 34 40 33 26 20 16 16 21 16 23 28 27 25 26 27 28 29 28 29 29 31 32 42 45 49 45 51 54 58 60 61 62 63 65 66 66 66 67 68 68 69 69 69 69 70 70 71 71 70 70 70 69 69 69 69 69 68 68 69 68 68 67 66 66 66 66 65 65 64 63 63 62 64 66 67 67 65 66 68 68 67 67 67 64 64 64 64 64 65 66 66 66 66
47 45 41 41 39 38 33 26 17 18 17 20 21 26 27 26 25 25 25 26 26 26 26 26 25 38 40 46 50 53 60 56 59 60 62 62 64 64 65 66 66 66 68 68 69 69 69 69 71 71 71 71 70 70 70 69 69 69 69 69 68 69 69 68 69 68 66 65 66 66 65 65 64 64 63 63 64 64 65 65 65 65 65 66 66 66 66 65 64 64 64 64 66 66 65 65 65
51 38 42 30 34 29 28 24 24 27 17 24 22 26 25 26 26 25 25 22 22 19 22 26 25 30 34 42 46 53 61 63 62 63 63 63 64 64 65 65 65 67 68 68 69 69 69 69 71 70 71 71 70 70 69 69 69 69 69 69 68 69 69 69 69 68 66 65 66 66 65 65 64 63 63 63 64 64 65 65 65 66 66 65 65 65 65 64 64 64 63 63 66 65 64 65 65
45 37 44 34 27 32 25 21 18 18 19 21 23 29 35 26 24 23 21 23 23 24 24 23 27 25 34 46 48 53 59 62 63 63 64 64 64 65 64 64 66 68 69 68 69 69 69 68 70 70 70 71 70 70 70 69 69 69 69 69 69 69 69 69 68 67 66 65 66 66 65 65 64 63 63 63 63 63 63 64 65 65 65 64 64 63 63 62 62 62 62 64 65 64 64 64 64
38 31 27 31 34 28 25 23 22 18 20 21 20 22 23 22 20 19 19 19 21 25 26 23 26 24 39 46 51 55 58 61 63 63 63 64 64 64 64 65 68 69 68 68 69 69 69 70 68 69 70 70 70 70 70 70 69 69 69 69 69 69 69 69 68 66 66 65 66 66 65 65 64 63 62 62 63 63 63 64 64 64 63 62 61 61 62 62 63 62 62 65 64 64 63 64 64
33 33 39 28 30 24 25 19 21 20 18 19 18 20 19 20 21 20 18 18 25 27 27 24 20 25 44 48 49 53 60 60 62 62 63 64 64 64 64 67 69 69 68 68 69 69 69 69 69 68 69 69 70 70 70 70 70 69 69 69 69 69 69 69 68 66 65 65 65 65 65 65 64 63 63 64 64 64 64 63 63 62 62 61 61 62 63 63 63 62 63 64 63 63 63 63 63
34 31 32 27 23 25 19 22 24 20 19 19 17 20 19 19 21 17 16 20 26 26 25 25 25 24 44 45 49 57 59 60 61 62 63 64 63 63 64 67 68 69 69 69 69 69 69 69 69 69 67 67 69 70 70 70 70 70 69 69 69 69 69 68 68 66 65 65 65 65 65 64 64 64 63 63 63 63 62 62 62 61 61 63 63 62 61 62 62 62 63 63 63 63 63 63 63
38 38 27 22 23 20 19 20 20 25 18 19 18 20 19 18 17 17 16 16 23 24 23 23 26 25 37 45 49 55 58 59 61 62 63 63 63 63 65 67 68 68 68 68 69 68 68 68 68 69 67 65 66 67 68 69 69 70 70 70 69 69 69 68 68 66 65 65 65 65 64 65 65 63 63 63 63 63 62 62 61 61 61 61 61 61 62 62 62 63 63 63 62 63 63 63 62
36 38 33 27 30 23 20 22 22 19 17 22 19 22 22 19 19 16 14 18 21 22 25 24 26 37 44 48 50 53 56 59 61 62 63 63 63 63 64 67 68 68 68 68 68 68 68 68 68 68 67 68 68 66 66 68 68 69 69 69 69 69 68 69 68 66 65 65 65 65 65 65 65 64 64 63 63 62 62 62 62 61 61 61 62 61 61 61 61 61 63 62 62 62 62 61 62
36 41 30 28 23 19 21 13 20 22 17 20 21 21 20 23 19 19 15 22 24 27 28 29 30 23 31 42 43 50 51 60 61 62 62 62 63 63 64 66 67 67 68 68 68 68 68 68 68 68 68 68 68 68 68 67 66 68 68 68 68 68 68 68 67 65 65 65 65 64 64 64 64 64 64 64 64 64 63 63 62 62 62 62 61 61 61 60 60 61 62 62 62 62 61 61 61
42 36 28 26 21 16 22 20 23 19 18 20 21 19 19 20 20 18 21 22 24 31 23 21 27 23 39 35 40 48 59 60 61 61 62 62 62 63 64 65 67 67 67 67 68 68 68 68 68 68 68 68 68 68 68 67 65 65 67 67 67 68 67 67 65 64 63 62 61 61 61 60 60 59 59 60 62 62 62 61 63 63 61 62 62 61 60 60 61 62 61 60 60 60 59 59 60
40 39 26 23 16 19 18 18 21 15 21 22 21 18 18 20 20 22 26 23 23 22 25 27 26 38 43 52 50 58 60 60 60 61 61 61 61 61 63 64 65 66 66 67 67 68 68 68 68 68 68 68 68 68 68 67 66 65 65 65 65 66 66 65 64 61 59 59 58 58 58 58 59 59 59 58 58 59 59 60 63 62 61 61 61 61 60 60 61 60 59 59 58 58 58 57 58
35 24 26 21 25 18 23 18 22 23 19 18 19 18 18 18 20 21 20 18 20 22 26 29 43 51 57 58 59 60 60 60 60 61 60 60 60 60 62 62 64 64 64 65 67 67 67 67 68 68 68 67 68 68 68 68 66 66 67 67 66 65 63 62 61 60 60 58 57 57 57 58 58 59 59 60 58 59 59 59 60 62 61 62 61 60 60 60 60 58 58 57 57 57 55 51 51
30 25 22 21 25 19 18 19 20 17 18 17 18 18 18 18 18 20 15 17 18 21 21 28 36 47 57 58 59 59 60 60 60 60 60 60 60 60 62 61 63 63 63 64 65 67 67 67 68 68 68 67 68 67 68 68 67 67 67 67 66 63 63 63 62 61 59 58 57 57 57 58 58 58 58 58 57 57 58 58 60 61 62 61 61 60 59 59 58 57 56 55 56 54 48 48 49
30 29 22 24 26 21 21 21 20 21 17 17 16 17 13 17 19 22 16 14 17 18 19 25 29 42 56 57 58 59 59 59 59 59 60 60 60 60 61 61 62 63 63 64 65 66 66 66 67 67 67 67 67 67 67 67 67 68 67 67 66 65 65 65 63 61 59 58 58 57 58 57 58 57 58 58 57 56 57 58 59 60 60 59 59 59 59 58 55 56 55 54 51 49 46 46 47
27 28 26 25 21 23 21 23 23 20 17 16 15 17 16 19 20 16 16 14 16 15 18 22 24 33 52 57 57 57 58 58 58 58 59 59 59 59 61 62 62 63 63 63 64 65 66 66 66 67 67 67 67 67 67 67 67 68 67 67 67 66 66 66 65 63 60 59 60 60 59 58 57 57 56 56 55 55 55 55 56 56 55 55 55 53 52 51 49 48 46 46 44 45 45 45 46
29 22 25 23 22 23 23 24 25 24 21 17 17 14 16 20 19 18 14 12 15 15 16 19 22 29 47 56 57 56 57 57 57 57 58 59 59 59 59 58 59 61 62 63 64 64 64 66 66 66 67 67 67 67 67 67 67 67 67 67 67 67 67 66 66 64 62 61 63 62 58 56 56 55 55 55 54 53 52 52 52 52 52 52 52 49 47 47 49 46 44 44 43 44 44 45 45
20 20 21 22 22 22 24 25 24 21 20 19 18 20 20 20 20 21 16 14 15 21 26 24 20 29 44 57 56 55 56 56 57 57 57 58 58 59 59 59 59 59 62 63 63 64 64 65 66 66 66 67 66 67 67 67 67 67 67 67 67 67 67 66 66 65 64 63 64 60 58 56 55 54 54 54 53 51 49 49 48 49 49 48 46 44 45 47 47 44 43 42 42 43 43 44 44
19 16 20 22 24 23 25 23 25 22 21 21 22 23 20 20 17 20 19 19 18 23 25 30 26 29 44 55 55 55 56 56 56 57 57 58 58 58 59 59 59 59 60 62 63 64 63 64 65 66 65 66 66 67 67 67 67 67 67 66 67 66 66 66 66 66 65 64 64 61 58 56 54 54 53 53 51 49 48 46 46 46 45 44 43 44 46 49 45 44 42 42 42 42 42 42 43
16 17 24 23 23 24 24 23 23 23 22 23 22 20 19 19 18 22 20 19 18 26 28 30 29 32 42 54 54 54 55 55 56 56 57 56 58 58 58 58 58 59 59 61 62 63 63 64 63 64 65 66 66 66 66 66 67 67 67 66 66 64 66 66 66 65 65 65 64 63 60 57 55 54 53 52 50 48 48 47 46 46 43 41 42 46 50 46 45 43 42 40 39 39 40 40 40
15 18 23 23 23 23 23 23 24 23 23 23 20 21 21 22 24 21 21 22 22 25 27 31 30 31 37 49 53 53 55 55 55 56 56 57 57 58 58 58 58 59 59 61 62 62 63 63 63 63 64 65 65 65 65 66 66 66 66 66 66 65 66 66 65 65 65 65 65 63 61 58 56 55 54 51 48 48 49 48 47 47 43 42 46 50 48 46 44 43 41 39 37 37 37 38 37
23 22 23 22 22 23 25 22 24 23 24 22 21 22 21 23 21 17 20 21 23 24 24 28 31 31 32 39 46 50 53 54 55 55 55 55 56 57 57 58 58 59 59 60 61 62 62 63 63 62 63 63 64 64 64 65 65 65 65 66 66 66 66 66 65 65 65 65 65 64 63 60 57 57 56 52 48 49 50 48 47 48 46 47 50 50 48 45 44 42 40 38 35 35 36 36 35
23 23 23 23 24 26 24 23 23 23 23 23 22 22 23 23 24 19 19 23 22 22 24 24 28 31 33 36 39 43 48 51 53 54 54 55 55 56 57 57 57 58 59 60 61 62 62 62 62 62 62 63 63 63 63 64 64 64 64 65 65 66 66 66 66 65 64 65 64 64 64 62 59 59 58 54 51 51 52 48 47 48 49 50 50 48 47 46 44 43 40 37 36 34 33 33 32
23 20 18 22 23 23 23 22 23 24 23 24 24 17 16 23 20 20 21 25 22 22 23 24 24 24 26 32 38 39 42 45 50 52 53 54 55 55 56 57 57 58 59 59 60 60 62 62 62 62 61 61 62 62 62 63 63 64 63 63 64 65 65 66 66 65 65 65 64 64 64 63 61 60 60 58 55 55 54 49 49 48 50 51 49 48 47 45 43 41 38 36 33 32 31 31 33
23 22 20 21 20 19 21 24 24 23 23 26 19 10 12 16 20 20 23 25 24 22 22 23 23 24 24 25 27 34 38 40 46 50 52 53 54 55 55 56 57 57 58 59 60 60 61 62 62 62 61 61 60 62 61 62 63 63 63 63 62 64 65 65 65 65 65 65 65 64 64 63 63 61 60 61 59 59 55 50 50 50 51 50 49 47 45 44 41 38 35 32 34 30 29 28 27
19 21 21 22 19 18 22 24 23 21 25 25 17 15 13 15 16 19 24 24 23 22 22 22 22 23 24 26 25 25 29 36 42 47 50 52 54 55 55 55 57 58 58 59 59 60 59 60 61 61 60 60 59 60 60 61 61 62 62 62 62 62 63 64 64 65 65 65 65 65 64 64 63 63 61 61 61 60 56 51 51 52 51 50 48 46 45 43 40 36 33 31 31 29 27 27 25
20 13 16 23 18 22 23 26 22 19 23 25 19 21 16 16 17 22 26 24 22 21 22 22 23 23 24 25 25 25 25 29 36 43 48 50 53 54 55 55 56 58 58 59 59 59 59 60 59 60 59 60 60 59 59 60 61 62 62 61 62 61 62 62 63 64 65 65 65 65 65 64 63 63 63 62 61 61 58 53 53 53 51 49 48 46 44 42 39 37 33 31 28 28 27 27 26
21 16 23 20 22 24 23 24 28 25 24 24 17 12 18 17 23 24 25 23 22 21 22 22 22 22 22 23 25 25 26 27 32 35 43 48 51 53 55 55 56 57 58 59 59 59 59 59 59 59 59 59 60 60 59 59 60 60 61 61 62 61 61 61 61 63 64 64 64 65 64 64 64 63 63 63 62 61 60 56 54 53 50 48 47 46 44 42 39 38 34 31 28 27 25 25 25
19 22 16 29 15 19 21 23 24 30 23 22 23 22 19 18 20 21 24 27 24 22 22 22 22 22 22 23 25 26 27 27 28 30 34 45 48 51 54 54 55 56 58 58 59 59 59 59 59 59 59 59 60 60 59 59 59 58 58 60 60 61 61 61 61 61 62 64 64 65 64 64 64 64 64 64 63 62 61 59 56 53 50 48 47 45 44 42 39 36 33 32 29 26 24 23 24
20 19 18 16 21 21 20 21 23 25 23 22 22 22 21 21 22 22 22 25 23 22 22 22 22 22 23 24 24 25 27 28 28 29 30 37 46 48 51 54 55 56 57 57 58 59 59 59 58 58 59 59 59 60 59 58 58 56 56 57 57 60 61 61 61 61 61 62 63 63 64 64 63 64 63 63 63 62 61 60 56 54 51 48 47 45 44 42 39 36 33 32 31 27 24 24 26
26 23 21 25 22 24 19 21 25 24 22 21 21 20 20 21 21 22 22 23 23 23 22 22 22 22 22 23 24 26 27 26 28 30 32 32 41 47 48 51 53 55 57 57 57 58 59 59 58 58 58 59 59 59 59 58 57 57 55 53 54 55 57 59 60 61 61 61 61 62 63 64 63 63 63 63 63 63 62 61 58 55 51 49 47 45 44 41 38 36 33 31 30 30 28 27 28
20 27 26 21 24 22 25 26 25 26 19 19 21 21 20 20 20 20 19 19 21 23 23 23 23 22 22 22 23 23 25 26 32 33 34 34 36 42 46 49 51 52 55 56 56 57 58 58 58 58 58 59 59 58 58 58 57 56 54 55 55 55 55 56 58 59 59 60 60 61 61 63 63 63 63 63 63 61 62 61 59 56 53 50 48 46 44 42 39 36 34 32 29 27 27 28 26
20 24 24 22 25 18 24 25 26 25 19 20 20 18 19 17 17 17 17 19 19 19 20 21 22 22 23 24 24 24 23 30 34 36 35 36 35 38 41 45 48 49 51 54 56 56 57 57 58 58 58 58 58 58 58 58 58 57 56 56 56 55 54 54 56 57 59 58 59 60 60 62 63 63 62 63 63 63 62 61 59 58 55 52 49 47 45 43 40 37 35 32 30 27 26 27 26
27 21 26 25 24 22 25 26 26 26 22 18 20 21 19 19 19 20 21 21 21 20 20 20 20 21 22 23 25 25 27 27 29 30 36 35 37 38 39 41 46 49 49 52 54 55 56 56 57 57 57 57 57 57 57 57 57 56 55 52 55 51 51 53 53 55 55 57 58 58 59 60 62 63 63 63 63 62 62 61 60 58 55 53 52 51 48 45 41 37 34 32 30 30 29 28 23
25 24 19 18 26 24 21 21 24 24 20 18 24 24 23 24 24 23 22 21 20 20 21 22 23 21 20 19 20 24 26 29 29 29 32 37 36 37 38 39 42 46 47 48 49 52 54 54 55 56 56 56 56 56 55 55 53 51 50 50 50 52 51 50 52 52 54 55 57 57 59 60 60 61 62 62 63 62 62 61 60 58 56 54 53 51 48 47 44 41 37 36 31 29 29 26 23
27 28 27 25 27 26 22 20 23 23 22 30 25 23 19 21 22 22 19 22 24 23 21 19 22 27 25 28 29 27 23 27 30 30 37 38 38 38 38 38 40 42 45 46 47 49 51 52 53 54 54 55 54 53 52 51 51 50 49 49 49 49 50 50 51 52 53 55 56 57 59 59 60 60 61 62 60 62 61 61 60 59 57 54 53 50 47 46 44 41 38 37 35 33 30 27 25
21 28 26 23 25 22 27 29 20 20 18 25 25 16 18 19 21 16 11 9 8 18 20 19 18 20 23 24 25 29 36 33 30 31 37 39 38 38 38 39 40 40 42 45 46 47 48 50 51 51 52 52 53 51 51 52 52 52 51 51 50 50 50 51 52 53 53 54 56 55 55 58 59 59 60 61 61 60 60 60 60 59 58 56 53 51 49 46 43 39 37 36 35 34 32 29 27
19 16 31 25 24 28 27 26 21 16 11 24 24 16 18 19 11 8 6 7 8 11 18 23 22 21 23 25 27 29 32 34 38 39 39 40 40 39 39 39 40 40 41 43 44 45 47 48 49 50 51 51 51 51 51 51 51 52 51 51 51 51 51 51 49 49 51 50 52 53 55 55 58 58 58 60 60 59 60 59 59 59 58 56 54 53 50 47 44 41 38 38 37 37 36 32 30
18 29 34 28 26 27 28 27 23 20 27 28 27 22 13 13 7 10 9 13 13 11 10 12 19 25 24 24 28 30 32 33 37 39 39 40 40 39 38 40 40 40 41 43 44 44 45 47 49 49 50 50 51 50 51 51 51 51 51 51 50 51 50 50 49 50 49 50 52 52 53 53 55 56 57 57 59 59 58 59 59 58 58 57 54 54 52 50 46 44 40 39 38 38 36 35 33
23 33 35 28 26 29 29 27 25 26 22 21 25 28 14 18 19 18 16 13 11 12 12 13 13 15 21 24 27 30 33 36 38 39 39 40 40 40 40 40 41 41 42 43 44 44 45 46 48 49 50 50 50 50 51 51 51 51 51 51 50 50 50 49 48 49 50 49 50 49 52 53 54 55 56 56 56 58 57 59 58 58 57 57 54 54 53 50 48 46 45 45 45 42 37 37 35
29 35 35 35 34 33 31 25 24 24 18 19 21 25 10 16 21 16 14 13 11 9 9 10 13 16 19 19 31 39 40 40 42 41 41 40 40 40 41 41 41 42 42 43 44 45 45 46 47 48 49 50 50 50 50 51 51 50 51 50 50 49 48 48 48 49 49 49 50 50 50 52 53 54 55 55 55 56 56 57 57 57 57 56 54 55 53 51 48 46 44 42 41 39 38 37 37
35 35 32 32 30 28 26 26 22 15 8 19 24 27 14 9 19 12 12 16 9 9 9 17 27 32 36 35 37 39 39 39 39 40 40 40 40 40 41 41 41 41 42 43 44 45 45 46 47 48 49 49 50 50 50 50 50 50 50 50 49 49 48 48 48 48 48 48 50 50 51 52 52 53 53 53 53 54 55 55 56 57 57 54 53 54 54 52 49 46 44 42 41 41 40 39 40
36 30 28 24 23 25 24 23 22 9 11 19 24 27 21 12 17 20 19 12 13 13 10 11 25 29 35 37 38 38 40 41 39 39 39 38 38 38 39 40 41 41 42 43 44 45 45 46 47 47 47 48 49 50 50 50 50 50 50 50 49 49 48 49 49 49 48 49 49 50 50 50 51 52 52 52 51 51 52 54 54 55 55 55 54 54 54 53 50 48 45 43 42 43 43 42 42
31 24 19 14 11 19 11 18 14 13 11 19 23 24 23 21 16 16 20 20 19 16 11 18 24 26 33 36 37 38 39 41 40 39 39 39 39 38 38 39 39 41 42 43 44 45 45 45 46 47 47 47 49 49 50 50 50 50 50 49 49 49 49 49 49 49 48 49 49 49 49 50 51 50 51 51 51 50 50 51 52 54 54 54 54 53 53 52 51 50 48 47 45 43 42 41 41
26 21 20 13 4 10 6 11 14 14 19 22 22 23 19 21 16 21 20 19 18 16 15 21 27 30 36 38 38 38 39 40 39 39 39 39 39 39 38 38 40 41 42 43 43 44 45 45 46 46 47 47 48 48 49 49 50 50 49 49 49 49 49 49 49 49 48 49 49 50 50 50 50 50 50 50 51 50 49 50 50 52 53 53 53 53 53 52 50 50 48 46 44 43 42 41 40
27 26 19 19 14 9 2 6 4 12 16 20 23 14 19 11 14 20 20 20 20 22 22 27 29 31 34 37 39 38 38 38 38 39 41 41 40 40 39 39 39 40 42 42 43 44 44 45 45 46 46 46 47 48 48 49 49 49 49 49 49 48 49 49 49 49 49 49 49 49 50 49 50 50 50 50 50 49 48 48 48 49 50 51 52 52 52 51 50 49 47 47 45 44 43 42 42
27 28 26 16 16 20 7 16 14 12 11 10 15 16 20 17 18 22 23 23 21 16 14 21 22 28 34 32 36 38 39 40 40 40 41 42 42 42 40 39 39 39 40 41 42 44 44 45 45 46 46 46 47 47 48 48 49 49 48 48 48 47 47 48 48 48 49 49 49 49 49 49 49 49 48 48 48 48 48 47 47 47 48 49 50 51 51 50 49 48 47 46 46 45 45 44 44
22 25 22 24 28 20 16 16 22 13 9 12 17 19 19 19 10 13 14 13 11 11 12 11 11 25 28 30 32 33 35 38 40 41 41 41 40 41 42 41 40 39 40 41 42 43 44 45 45 45 45 45 46 46 47 48 48 47 48 48 48 47 47 47 48 48 48 47 48 48 49 49 48 48 47 47 47 47 47 47 47 47 47 47 48 49 50 49 48 47 47 46 45 44 44 44 43
26 21 24 28 31 28 18 11 13 9 8 12 14 10 9 5 10 19 13 13 13 14 13 12 14 19 20 27 29 30 33 35 38 40 40 40 40 41 42 43 42 41 41 41 41 42 44 45 45 45 45 45 46 46 47 47 47 47 47 47 47 47 47 47 47 47 47 47 46 46 46 47 47 47 47 46 47 46 46 44 46 45 44 44 46 46 47 47 47 46 46 46 45 44 43 42 41
26 26 32 23 20 16 22 16 7 5 5 9 13 12 12 10 8 6 6 8 8 8 11 13 13 16 22 26 28 31 33 38 38 38 38 38 38 40 41 42 42 42 42 41 41 42 43 43 44 45 45 45 45 46 46 46 47 47 47 47 46 47 47 47 47 46 46 47 47 46 46 46 46 46 46 45 44 42 42 42 42 42 41 42 42 42 42 44 44 44 42 42 41 41 41 40 40
34 32 27 31 25 21 17 18 15 15 5 0 11 4 5 16 15 7 7 7 10 10 11 15 14 19 24 24 27 28 34 38 39 39 41 41 41 41 42 41 41 41 41 41 41 41 42 43 43 44 44 44 44 45 45 46 46 46 46 45 45 46 46 46 46 45 46 46 46 46 45 43 45 44 44 44 43 42 42 41 40 40 40 40 41 41 40 41 41 42 41 41 41 40 40 40 39
27 26 25 26 24 26 24 22 16 10 4 4 3 6 9 11 12 10 9 9 12 12 19 25 24 22 21 23 26 28 33 36 38 40 40 41 41 41 41 39 39 38 38 39 40 41 42 42 43 43 44 44 44 45 45 46 45 45 44 44 44 44 44 44 43 44 45 45 45 44 44 44 40 41 41 43 43 43 42 42 41 40 40 40 40 40 39 40 40 40 40 40 40 40 40 39 38
28 27 26 26 25 19 13 17 22 14 9 9 3 8 13 13 12 9 13 23 23 26 24 21 21 22 24 25 24 30 36 37 37 38 40 40 40 40 39 37 37 37 37 37 38 39 40 42 43 43 43 43 44 44 45 45 45 45 44 44 43 42 43 42 42 42 42 42 42 42 41 39 40 40 41 43 43 42 42 41 41 40 40 39 39 39 39 39 39 40 40 40 40 39 39 38 38